EW4427 Weather Reports


time (UTC)temp
F
wind
direction
speed
knots
gust
knots
rain 1hr
in
rain 24hr
in
rain mn
in
humidity
%
barometer
mb
20260505181549 57 317 0.9 5.2 0.00 0.00 0.00 38 1008.0
20260505181044 57 0 0.0 3.5 0.00 0.00 0.00 37 1007.9
20260505180544 57 165 0.0 2.6 0.00 0.00 0.00 37 1007.9
20260505180104 57 207 0.0 4.3 0.00 0.00 0.00 36 1007.7
20260505175542 57 207 0.0 4.3 0.00 0.00 0.00 34 1007.8
20260505175042 57 0 0.0 3.5 0.00 0.00 0.00 38 1007.7
20260505174604 57 0 0.0 3.5 0.00 0.00 0.00 39 1007.6
20260505174043 57 255 0.9 5.2 0.00 0.00 0.00 42 1007.7
20260505173543 56 175 0.0 5.2 0.00 0.00 0.00 42 1007.9
20260505173055 56 209 1.7 5.2 0.00 0.00 0.00 42 1007.9
20260505172545 56 0 0.0 3.5 0.00 0.00 0.00 41 1007.9
20260505172045 55 0 0.0 3.5 0.00 0.00 0.00 38 1008.0
20260505171552 55 196 0.9 3.5 0.00 0.00 0.00 41 1008.1
20260505171046 56 0 0.0 2.6 0.00 0.00 0.00 42 1007.9
20260505170547 56 0 0.0 2.6 0.00 0.00 0.00 40 1007.9
20260505170052 57 0 0.0 2.6 0.00 0.00 0.00 41 1007.7
20260505165548 57 0 0.0 5.2 0.00 0.00 0.00 43 1007.8
20260505165045 57 355 0.0 5.2 0.00 0.00 0.00 39 1007.5
20260505164554 56 0 0.9 5.2 0.00 0.00 0.00 40 1007.7
20260505164043 57 0 0.9 4.3 0.00 0.00 0.00 38 1007.5
20260505163545 57 209 0.0 2.6 0.00 0.00 0.00 43 1007.4
20260505163052 57 350 0.0 7.8 0.00 0.00 0.00 44 1007.7
20260505162543 56 0 0.9 7.8 0.00 0.00 0.00 43 1007.8
20260505162047 55 184 1.7 4.3 0.00 0.00 0.00 46 1007.7
20260505161555 56 192 0.9 5.2 0.00 0.00 0.00 42 1007.9
20260505161047 56 209 0.0 5.2 0.00 0.00 0.00 41 1007.6
20260505160547 58 182 0.9 5.2 0.00 0.00 0.00 40 1007.6
20260505153054 55 217 0.9 4.3 0.00 0.00 0.00 41 1007.7
20260505152546 55 0 0.9 4.3 0.00 0.00 0.00 42 1007.8
20260505152045 54 194 0.0 3.5 0.00 0.00 0.00 46 1007.8
20260505151551 55 0 0.0 5.2 0.00 0.00 0.00 42 1007.7
20260505151045 55 187 0.9 5.2 0.00 0.00 0.00 41 1007.8
20260505150545 55 0 0.0 5.2 0.00 0.00 0.00 40 1007.7
20260505140545 52 188 0.9 7.8 0.00 0.00 0.00 50 1008.0
20260505124551 48 0 0.0 0.9 0.00 0.00 0.00 52 1007.9
20260505124047 48 0 0.0 0.9 0.00 0.00 0.00 54 1008.0
20260505123551 48 0 0.0 0.0 0.00 0.00 0.00 56 1008.3
20260505123053 47 0 0.0 0.0 0.00 0.00 0.00 56 1008.1
20260505122546 46 0 0.0 0.9 0.00 0.00 0.00 57 1008.2
20260505122045 46 0 0.0 1.7 0.00 0.00 0.00 58 1007.8
20260505121549 46 0 0.0 2.6 0.00 0.00 0.00 54 1007.6
20260505121043 46 69 0.0 2.6 0.00 0.00 0.00 54 1007.7
20260505120545 45 0 0.0 2.6 0.00 0.00 0.00 55 1007.7
20260505120053 45 0 0.0 2.6 0.00 0.00 0.00 55 1008.0
20260505115546 45 0 0.0 0.9 0.00 0.00 0.00 58 1009.0
20260505115047 45 0 0.0 0.9 0.00 0.00 0.00 56 1007.7
20260505114603 45 0 0.0 0.9 0.00 0.00 0.00 57 1007.1
20260505114045 45 0 0.0 0.9 0.00 0.00 0.00 54 1006.9
20260505113546 45 0 0.0 3.5 0.00 0.00 0.00 54 1006.7
20260505113107 45 0 0.0 3.5 0.00 0.00 0.00 52 1006.4
20260505112548 45 0 0.0 2.6 0.00 0.00 0.00 52 1006.3
20260505112043 45 28 0.0 1.7 0.00 0.00 0.00 52 1006.5
20260505111551 45 0 0.0 1.7 0.00 0.00 0.00 52 1006.5
20260505111043 45 11 0.0 2.6 0.00 0.00 0.00 52 1006.6
20260505110547 45 0 0.0 2.6 0.00 0.00 0.00 52 1007.0
20260505102045 45 0 0.0 1.7 0.00 0.00 0.00 50 1005.9
20260505101607 45 0 0.0 1.7 0.00 0.00 0.00 51 1006.0
20260505101045 46 0 0.0 3.5 0.00 0.00 0.00 50 1006.2
20260505100545 46 0 0.0 3.5 0.00 0.00 0.00 50 1006.1
20260505100105 46 0 0.9 6.1 0.00 0.00 0.00 51 1005.8
20260505095543 46 10 0.0 6.1 0.00 0.00 0.00 52 1005.6
20260505095044 45 11 0.0 5.2 0.00 0.00 0.00 53 1005.4
20260505094553 45 29 0.9 6.1 0.00 0.00 0.00 53 1005.5
20260505094047 45 351 0.0 6.1 0.00 0.00 0.00 53 1005.7
20260505093547 45 0 0.0 1.7 0.00 0.00 0.00 53 1005.9
20260505093104 46 0 0.0 2.6 0.00 0.00 0.00 54 1005.8
20260505092547 45 0 0.0 2.6 0.00 0.00 0.00 54 1006.0
20260505092046 45 304 0.0 0.9 0.00 0.00 0.00 54 1006.1
20260505091554 45 0 0.0 0.9 0.00 0.00 0.00 54 1006.0
20260505091045 46 0 0.0 0.0 0.00 0.00 0.00 54 1006.0
20260505090545 46 0 0.0 0.9 0.00 0.00 0.00 53 1005.9
20260505090101 46 0 0.0 4.3 0.00 0.00 0.00 53 1005.6
20260505085546 47 0 0.0 4.3 0.00 0.00 0.00 51 1005.4
20260505085045 47 0 0.0 2.6 0.00 0.00 0.00 52 1005.4
20260505084557 47 24 0.0 1.7 0.00 0.00 0.00 52 1005.3
20260505084042 47 0 0.0 4.3 0.00 0.00 0.00 52 1004.9
20260505083546 48 25 0.9 4.3 0.00 0.00 0.00 51 1004.7
20260505083053 48 0 0.0 7.0 0.00 0.00 0.00 51 1004.7
20260505082542 48 15 0.9 7.0 0.00 0.00 0.00 51 1004.3
20260505082047 48 360 0.9 6.1 0.00 0.00 0.00 51 1004.4
20260505081604 48 0 1.7 6.1 0.00 0.00 0.00 51 1004.5
20260505081047 49 0 0.9 7.8 0.00 0.00 0.00 51 1004.4
20260505080549 49 39 1.7 7.8 0.00 0.00 0.00 50 1004.0
20260505080059 49 90 1.7 6.1 0.00 0.00 0.00 51 1003.8
20260505075547 49 0 0.9 3.5 0.00 0.00 0.00 53 1003.8
20260505075046 49 0 0.0 4.3 0.00 0.00 0.00 54 1003.4
20260505074550 50 5 0.9 4.3 0.00 0.00 0.00 54 1003.2
20260505074046 50 0 0.0 7.8 0.00 0.00 0.00 54 1003.1
20260505073543 50 0 0.9 7.8 0.00 0.00 0.00 53 1003.2
20260505073100 51 10 0.0 3.5 0.00 0.00 0.00 53 1003.4
20260505072542 51 47 0.0 7.8 0.00 0.00 0.00 52 1003.3
20260505072046 51 0 0.9 7.8 0.00 0.00 0.00 52 1003.2
20260505071555 51 284 0.0 7.0 0.00 0.00 0.00 53 1002.9
20260505071047 51 0 1.7 7.0 0.00 0.00 0.00 52 1002.9
20260505070547 51 13 0.9 4.3 0.00 0.00 0.00 52 1002.8
20260505070057 52 0 0.0 4.3 0.00 0.00 0.00 52 1003.1
20260505065547 52 0 0.0 4.3 0.00 0.00 0.00 52 1003.0
20260505065046 52 360 0.9 4.3 0.00 0.00 0.00 52 1002.7
20260505064550 52 0 0.0 3.5 0.00 0.00 0.00 53 1002.8
20260505064046 53 0 0.0 3.5 0.00 0.00 0.00 52 1002.4
20260505063545 53 57 0.0 5.2 0.00 0.00 0.00 51 1002.4
20260505063105 53 24 0.9 5.2 0.00 0.00 0.00 50 1002.3
20260505062545 54 35 0.0 11.3 0.00 0.00 0.00 49 1002.3
20260505062045 54 0 0.9 11.3 0.00 0.00 0.00 49 1002.2
20260505061552 54 5 1.7 11.3 0.00 0.00 0.00 48 1002.1
20260505061045 54 0 1.7 7.8 0.00 0.00 0.00 48 1002.2
20260505060542 54 37 1.7 4.3 0.00 0.00 0.00 48 1002.1
20260505060056 55 12 0.0 4.3 0.00 0.00 0.00 48 1002.1
20260505055543 55 42 0.0 7.0 0.00 0.00 0.00 47 1002.2
20260505055043 55 0 0.0 7.0 0.00 0.00 0.00 47 1002.2
20260505054552 55 0 0.9 7.0 0.00 0.00 0.00 46 1002.1
20260505054046 56 63 0.0 5.2 0.00 0.00 0.00 46 1002.0
20260505053549 56 30 0.0 3.5 0.00 0.00 0.00 45 1001.9
20260505053056 56 296 0.0 3.5 0.00 0.00 0.00 45 1001.7
20260505052547 56 0 0.0 3.5 0.00 0.00 0.00 44 1001.6
20260505052046 57 0 0.0 3.5 0.00 0.00 0.00 43 1001.4
20260505051549 57 0 0.0 2.6 0.00 0.00 0.00 43 1001.5
20260505051043 57 0 0.0 5.2 0.00 0.00 0.00 42 1001.3
20260505050545 58 0 0.9 5.2 0.00 0.00 0.00 42 1001.0
20260505041554 60 0 0.0 3.5 0.00 0.00 0.00 38 1000.6
20260505041048 60 57 0.0 3.5 0.00 0.00 0.00 38 1000.5
20260505040548 60 0 0.0 3.5 0.00 0.00 0.00 38 1000.3
20260505040056 60 0 0.0 6.1 0.00 0.00 0.00 39 1000.1
20260505035547 60 53 0.0 6.1 0.00 0.00 0.00 39 999.9
20260505035043 60 0 0.0 3.5 0.00 0.00 0.00 39 1000.1
20260505034553 61 0 0.0 2.6 0.00 0.00 0.00 40 999.9
20260505034048 61 0 0.0 2.6 0.00 0.00 0.00 42 1000.1
20260505033545 61 0 0.0 3.5 0.00 0.00 0.00 40 1000.0
20260505033058 61 0 0.0 3.5 0.00 0.00 0.00 40 1000.2
20260505032547 61 0 0.9 3.5 0.00 0.00 0.00 40 1000.3
20260505032045 61 0 0.0 3.5 0.00 0.00 0.00 41 1000.3
20260505031555 61 0 0.0 1.7 0.00 0.00 0.00 43 1000.3
20260505031047 61 0 0.0 2.6 0.00 0.00 0.00 42 1000.1
20260505030550 62 0 0.0 2.6 0.00 0.00 0.00 43 999.8
20260505030055 62 0 0.0 2.6 0.00 0.00 0.00 43 999.8
20260505025547 62 0 0.0 1.7 0.00 0.00 0.00 43 999.8
20260505025047 63 0 0.0 1.7 0.00 0.00 0.00 43 999.7
20260505024554 63 0 0.0 1.7 0.00 0.00 0.00 42 999.7
20260505024046 63 0 0.0 2.6 0.00 0.00 0.00 42 999.7
20260505023546 64 0 0.0 3.5 0.00 0.00 0.00 42 999.8
20260505023054 64 0 0.0 6.1 0.00 0.00 0.00 41 999.5
20260505022548 65 16 0.9 6.1 0.00 0.00 0.00 43 999.4
20260505022051 65 67 0.0 5.2 0.00 0.00 0.00 42 999.1
20260505021600 65 0 0.0 6.1 0.00 0.00 0.00 42 999.0
20260505021045 65 329 0.9 6.1 0.00 0.00 0.00 42 998.9
20260505020545 66 0 0.0 5.2 0.00 0.00 0.00 41 998.6
20260505020054 66 0 0.0 3.5 0.00 0.00 0.00 42 998.6
20260505015546 66 325 0.0 2.6 0.00 0.00 0.00 44 998.5
20260505015047 67 0 0.0 2.6 0.00 0.00 0.00 44 998.3
20260505014558 67 0 0.0 2.6 0.00 0.00 0.00 44 998.2
20260505014047 67 330 0.0 1.7 0.00 0.00 0.00 45 998.0
20260505013547 67 0 0.0 0.9 0.00 0.00 0.00 45 997.9
20260505013053 68 0 0.0 3.5 0.00 0.00 0.00 44 997.6
20260505012547 68 0 0.0 4.3 0.00 0.00 0.00 45 997.5
20260505012047 68 296 0.0 4.3 0.00 0.00 0.00 44 997.2
20260505011552 69 0 0.0 4.3 0.00 0.00 0.00 44 996.9
20260505011048 69 0 0.0 2.6 0.00 0.00 0.00 44 996.8
20260505010546 69 255 0.0 2.6 0.00 0.00 0.00 43 996.6
20260505010109 70 0 0.0 2.6 0.00 0.00 0.00 44 996.5
20260505005547 70 29 0.0 2.6 0.00 0.00 0.00 44 996.5
20260505005046 70 0 0.0 3.5 0.00 0.00 0.00 45 996.3
20260505004550 71 222 0.0 3.5 0.00 0.00 0.00 45 996.0
20260505004045 71 215 0.9 2.6 0.00 0.00 0.00 46 995.8
20260505003542 71 218 0.0 2.6 0.00 0.00 0.00 46 995.7
20260505003059 72 211 0.9 2.6 0.00 0.00 0.00 45 995.4
20260505002548 72 217 0.0 2.6 0.00 0.00 0.00 43 995.1
20260505002048 72 0 0.0 1.7 0.00 0.00 0.00 43 995.1
20260505001552 72 198 0.0 2.6 0.00 0.00 0.00 40 995.0
20260505001048 72 0 0.0 2.6 0.00 0.00 0.00 40 995.1
20260505000546 73 0 0.0 2.6 0.00 0.00 0.00 40 995.1
20260505000052 73 0 0.0 3.5 0.00 0.00 0.00 40 995.2
20260504235548 73 0 0.0 3.5 0.00 0.00 0.00 40 995.2
20260504235048 73 0 0.0 3.5 0.00 0.00 0.00 40 995.3
20260504234554 73 0 0.0 2.6 0.00 0.00 0.00 39 995.2
20260504234046 73 215 0.0 2.6 0.00 0.00 0.00 39 995.3
20260504233546 73 0 0.0 7.0 0.00 0.00 0.00 38 995.5
20260504233056 74 226 0.0 8.7 0.00 0.00 0.00 39 995.5
20260504232545 74 213 2.6 8.7 0.00 0.00 0.00 37 995.6
20260504232044 74 233 2.6 8.7 0.00 0.00 0.00 36 995.7
20260504231557 75 201 3.5 15.6 0.00 0.00 0.00 35 996.0
20260504231042 75 221 6.1 15.6 0.00 0.00 0.00 35 996.0
20260504230549 75 211 0.9 4.3 0.00 0.00 0.00 39 995.8
20260504230122 75 208 0.9 4.3 0.00 0.00 0.00 37 995.8
20260504225548 76 213 0.0 6.1 0.00 0.00 0.00 37 995.7
20260504225046 76 211 1.7 7.8 0.00 0.00 0.00 37 995.8
20260504224550 76 0 0.9 7.8 0.00 0.00 0.00 36 995.8
20260504224047 76 209 2.6 7.8 0.00 0.00 0.00 36 995.9
20260504223551 76 249 2.6 7.0 0.00 0.00 0.00 35 995.9
20260504223100 76 238 2.6 7.0 0.00 0.00 0.00 37 995.8
20260504222547 77 209 0.9 6.1 0.00 0.00 0.00 34 995.8
20260504222044 77 0 0.9 6.1 0.00 0.00 0.00 35 995.9
20260504221603 77 214 2.6 7.0 0.00 0.00 0.00 35 996.0
20260504221046 77 219 2.6 7.0 0.00 0.00 0.00 36 996.0
20260504220546 76 209 1.7 7.0 0.00 0.00 0.00 36 996.1
20260504220057 77 215 0.9 3.5 0.00 0.00 0.00 34 996.1
20260504215546 77 0 0.0 8.7 0.00 0.00 0.00 35 996.1
20260504215047 76 0 1.7 11.3 0.00 0.00 0.00 35 996.2
20260504214600 76 208 4.3 11.3 0.00 0.00 0.00 32 996.2
20260504214046 77 220 2.6 14.8 0.00 0.00 0.00 36 996.3
20260504213547 77 259 3.5 14.8 0.00 0.00 0.00 34 996.2
20260504213103 77 208 3.5 13.0 0.00 0.00 0.00 33 996.2
20260504212547 77 220 3.5 13.0 0.00 0.00 0.00 33 996.3
20260504212046 78 221 2.6 12.2 0.00 0.00 0.00 33 996.4
20260504211551 78 182 2.6 12.2 0.00 0.00 0.00 34 996.3
20260504211047 78 233 1.7 7.8 0.00 0.00 0.00 35 996.4
20260504210545 77 227 4.3 7.8 0.00 0.00 0.00 36 996.6
20260504210054 78 183 1.7 7.8 0.00 0.00 0.00 33 996.6
20260504205548 78 0 1.7 7.8 0.00 0.00 0.00 34 996.7
20260504205046 78 187 3.5 7.8 0.00 0.00 0.00 32 996.7
20260504204559 79 217 2.6 8.7 0.00 0.00 0.00 33 996.7
20260504204048 79 257 1.7 10.4 0.00 0.00 0.00 33 996.7
20260504203548 78 227 4.3 14.8 0.00 0.00 0.00 34 996.9
20260504203054 78 229 6.1 14.8 0.00 0.00 0.00 34 996.8
20260504202548 79 221 3.5 10.4 0.00 0.00 0.00 32 997.0
20260504202046 79 216 4.3 9.6 0.00 0.00 0.00 30 997.0
20260504201554 79 234 2.6 8.7 0.00 0.00 0.00 34 997.0
20260504201047 80 223 1.7 7.0 0.00 0.00 0.00 32 997.3
20260504200546 79 257 2.6 7.8 0.00 0.00 0.00 32 997.3
20260504200052 78 194 2.6 10.4 0.00 0.00 0.00 31 997.2
20260504195546 77 209 3.5 10.4 0.00 0.00 0.00 33 997.2
20260504195047 78 199 4.3 10.4 0.00 0.00 0.00 33 997.2
20260504194556 78 215 5.2 12.2 0.00 0.00 0.00 35 997.4
20260504194047 78 249 3.5 12.2 0.00 0.00 0.00 32 997.4
20260504193548 78 215 4.3 13.9 0.00 0.00 0.00 32 997.4
20260504193050 78 248 5.2 13.9 0.00 0.00 0.00 34 997.4
20260504192546 77 199 6.1 13.9 0.00 0.00 0.00 32 997.4
20260504192047 77 184 3.5 10.4 0.00 0.00 0.00 32 997.5
20260504191601 78 271 3.5 9.6 0.00 0.00 0.00 30 997.5
20260504191044 77 262 3.5 12.2 0.00 0.00 0.00 32 997.6
20260504190544 76 204 6.1 12.2 0.00 0.00 0.00 35 997.5
20260504190050 77 211 6.1 12.2 0.00 0.00 0.00 30 997.5
20260504185543 78 209 4.3 13.0 0.00 0.00 0.00 32 997.7
20260504185042 77 252 3.5 13.0 0.00 0.00 0.00 35 997.6
20260504184550 76 259 6.1 13.0 0.00 0.00 0.00 36 997.8
20260504184044 77 224 6.1 13.0 0.00 0.00 0.00 31 997.8
20260504183546 77 232 3.5 11.3 0.00 0.00 0.00 35 997.9
20260504183053 77 264 3.5 8.7 0.00 0.00 0.00 35 998.0
20260504182545 76 192 2.6 8.7 0.00 0.00 0.00 35 998.0
20260504182047 76 217 4.3 13.0 0.00 0.00 0.00 37 998.0